SCP
0 0 0 0 0 0 0 0 0 0 0 0 0 0 0 0 0 0 0 0 0 0 0 0 0 0 0 0 0 0 0 0 0 0 0 0 0 0 0 0 0 0 0
0 0 0 0 0 0 0 0 0 0 0 0 0 0 0 0 0 0 0 0 0 0 0 0 0 0 0 0 0 0 0 0 0 0 0 0 0 0 0 0 0 0 0
0 0 0 0 0 0 0 0 0 0 0 0 0 0 0 0 0 0 0 0 0 0 0 0 0 0 0 0 0 0 0 0 0 0 0 0 0 0 0 0 0 0 0
0 0 0 0 0 0 0 0 0 0 0 0 0 0 0 0 0 0 0 0 0 0 0 0 0 0 0 0 0 0 0 0 0 0 0 0 0 0 0 0 0 0 0
0 0 0 0 0 0 0 0 0 0 0 0 0 0 0 0 0 0 0 0 0 0 0 0 0 0 0 0 0 0 0 0 0 0 0 0 0 0 0 0 0 0 0
0 0 0 0 0 0 0 0 0 0 0 0 0 0 0 0 0 0 0 0 0 0 0 0 0 0 0 0 0 0 0 0 0 0 0 0 0 0 0 0 0 0 0
0 0 0 0 0 0 0 0 0 0 0 0 0 0 0 0 0 0 0 0 0 0 0 0 0 0 0 0 0 0 0 0 0 0 0 0 0 0 0 0 0 0 0
0 0 0 0 0 0 0 0 0 0 0 0 0 0 0 0 0 0 0 0 0 0 0 0 0 0 0 0 0 0 0 0 0 0 0 0 0 0 0 0 0 0 0
0 0 0 0 0 0 0 0 0 0 0 0 0 0 0 0 0 0 0 0 0 0 0 0 0 0 0 0 0 0 0 0 0 0 0 0 0 0 0 0 0 0 0
0 0 0 0 0 0 0 0 0 0 0 0 0 0 0 0 0 0 0 0 0 0 0 0 0 0 0 0 0 0 0 0 0 0 0 0 0 0 0 0 0 0 0
0 0 0 0 0 0 0 0 0 0 0 0 0 0 0 0 0 0 0 0 0 0 0 0 0 0 0 0 0 0 0 0 0 0 0 0 0 0 0 0 0 0 0
0 0 0 0 0 0 0 0 0 0 0 0 0 0 0 0 0 0 0 0 0 0 0 0 0 0 0 0 0 0 0 0 0 0 0 0 0 0 0 0 0 0 0
0 0 0 0 0 0 0 0 0 0 0 0 0 0 0 0 0 0 0 0 0 0 0 0 0 0 0 0 0 0 0 0 0 0 0 0 0 0 0 0 0 0 0
0 0 0 0 0 0 0 0 0 0 0 0 0 0 0 0 0 0 0 0 0 0 0 0 0 0 0 0 0 0 0 0 0 0 0 0 0 0 0 0 0 0 0
0 0 0 0 0 0 0 0 0 0 0 0 0 0 0 0 0 0 0 0 0 0 0 0 0 0 0 0 0 0 0 0 0 0 0 0 0 0 0 0 0 0 0
0 0 0 0 0 0 0 0 0 0 0 0 0 0 0 0 0 0 0 0 0 0 0 0 0 0 0 0 0 0 0 0 0 0 0 0 0 0 0 0 0 0 0
0 0 0 0 0 0 0 0 0 0 0 0 0 0 0 0 0 0 0 0 0 0 0 0 0 0 0 0 0 0 0 0 0 0 0 0 0 0 0 0 0 0 0
0 0 0 0 0 0 0 0 0 0 0 0 0 0 0 0 0 0 0 0 0 0 0 0 0 0 0 0 0 0 0 0 0 0 0 0 0 0 0 0 0 0 0
0 0 0 0 0 0 0 0 0 0 0 0 0 0 0 0 0 0 0 0 0 0 0 0 0 0 0 0 0 0 0 0 0 0 0 0 0 0 0 0 0 0 0
0 0 0 0 0 0 0 0 0 0 0 0 0 0 0 0 0 0 0 0 0 0 0 0 0 0 0 0 0 0 0 0 0 0 0 0 0 0 0 0 0 0 0
0 0 0 0 0 0 0 0 0 0 0 0 0 0 0 0 0 0 0 0 0 0 0 0 0 0 0 0 0 0 0 0 0 0 0 0 0 0 0 0 0 0 0
0 0 0 0 0 0 0 0 0 0 0 0 0 0 0 0 0 0 0 0 0 0 0 0 0 0 0 0 0 0 0 0 0 0 0 0 0 0 0 0 0 0 0
0 0 0 0 0 0 0 0 0 0 0 0 0 0 0 0 0 0 0 0 0 0 0 0 0 0 0 0 0 0 0 0 0 0 0 0 0 0 0 0 0 0 0
0 0 0 0 0 0 0 0 0 0 0 0 0 0 0 0 0 0 0 0 0 0 0 0 0 0 0 0 0 0 0 0 0 0 0 0 0 0 0 0 0 0 0
0 0 0 0 0 0 0 0 0 0 0 0 0 0 0 0 0 0 0 0 0 0 0 0 0 0 0 0 0 0 0 0 0 0 0 0 0 0 0 0 0 0 0
0 0 0 0 0 0 0 0 0 0 0 0 0 0 0 0 0 0 0 0 0 0 0 0 0 0 0 0 0 0 0 0 0 0 0 0 0 0 0 0 0 0 0
Wind_Speed
3 3 2 3 3 3 3 4 4 5 5 5 5 6 6 6 6 5 5 14 16 18 19 20 20 20 20 20 20 19 19 19 19 18 18 17 17 16 16 15 15 14 13
3 3 3 3 3 3 3 3 4 4 4 4 4 5 6 6 7 7 6 9 17 19 21 22 22 23 23 23 22 22 22 22 21 21 21 20 20 19 19 18 17 17 16
4 3 3 3 3 3 4 3 4 3 3 4 5 6 6 7 7 7 7 6 7 16 21 23 24 24 25 25 25 24 24 24 24 24 23 23 23 22 22 21 20 19 19
4 3 3 3 3 3 2 2 3 3 4 4 5 5 5 5 7 7 7 7 6 7 13 22 24 24 25 26 27 27 26 26 26 26 26 26 25 25 24 24 23 22 21
3 3 3 3 3 3 3 3 3 3 4 5 5 5 5 5 6 7 8 8 8 7 7 14 23 24 25 26 27 28 28 28 28 28 28 28 28 27 27 26 26 25 24
3 3 2 3 3 3 3 3 4 4 4 5 6 6 6 6 7 8 10 8 7 8 8 8 9 14 23 25 26 28 29 29 30 30 30 30 30 30 29 29 28 27 27
2 2 1 2 3 3 4 4 3 4 4 3 3 5 6 9 11 10 9 8 8 9 8 8 6 6 8 20 24 26 27 28 29 30 31 31 31 31 31 31 30 30 29
1 1 2 2 3 3 4 4 4 3 3 2 2 3 6 6 5 6 4 5 7 6 6 8 7 7 6 6 13 24 26 27 28 29 30 30 31 32 32 32 32 32 31
1 1 2 2 3 3 3 4 4 4 4 4 3 4 3 5 5 4 6 5 5 4 5 6 8 8 8 7 8 17 25 27 28 28 29 29 30 31 32 33 33 33 33
1 0 1 2 3 3 4 4 4 4 4 4 4 4 6 6 4 6 4 4 5 6 7 7 7 8 9 7 11 19 24 26 27 28 28 29 29 30 32 32 33 34 34
2 2 2 2 3 3 4 5 5 4 4 5 5 4 5 5 6 8 10 6 6 6 8 8 7 7 9 9 8 14 24 26 28 28 28 28 29 30 31 32 32 33 34
1 1 1 2 3 4 5 5 5 6 5 6 5 5 5 5 6 7 10 9 9 6 7 6 6 6 7 7 11 20 25 27 27 28 27 27 28 29 30 31 32 32 33
2 2 2 3 4 4 5 5 5 6 6 7 7 6 6 7 6 7 10 12 12 8 7 6 7 7 8 7 8 18 22 26 27 27 26 26 27 28 29 30 32 32 33
2 3 4 4 5 6 6 5 5 6 6 7 9 8 7 7 6 7 7 10 15 13 8 8 6 7 6 6 9 15 12 22 24 24 25 25 26 27 28 29 30 31 32
3 4 5 6 6 6 6 6 5 7 6 7 7 8 7 7 6 6 7 7 10 17 16 8 6 5 5 6 12 9 7 18 25 25 25 25 25 27 28 29 29 30 31
4 5 6 6 6 7 7 6 6 7 7 7 6 8 8 7 6 6 6 7 7 12 19 10 6 6 7 9 16 12 9 23 25 26 26 26 27 27 28 28 29 29 30
5 6 6 6 7 7 7 7 7 7 8 8 8 8 9 8 7 7 7 7 7 8 16 16 7 6 7 9 10 8 9 9 10 24 28 28 28 28 27 27 27 28 29
6 6 7 7 8 8 8 8 8 8 8 9 9 9 9 9 10 8 8 9 8 8 12 19 12 6 8 8 9 10 10 11 8 20 27 28 28 28 28 27 27 27 28
7 7 7 8 8 8 8 8 9 9 9 9 9 10 10 11 13 11 11 11 10 11 10 14 16 8 7 8 10 10 12 10 11 16 23 25 27 27 26 26 26 26 26
7 8 8 8 9 9 9 9 9 10 10 10 10 10 12 12 14 14 13 13 12 12 12 13 14 11 9 8 8 9 10 8 10 11 15 18 22 25 25 25 25 25 25
8 8 9 9 9 8 8 9 9 9 10 11 10 11 12 17 23 19 15 12 11 12 12 12 13 12 10 8 8 8 11 9 9 8 8 9 9 8 9 17 21 22 23
8 9 9 9 9 8 18 24 19 10 9 9 10 10 11 16 20 26 28 26 22 15 12 12 12 13 12 10 9 9 10 11 10 5 7 9 7 7 6 6 15 22 22
9 9 9 9 9 11 21 25 25 16 10 9 10 10 11 13 20 12 19 25 23 27 26 17 15 14 14 11 11 12 12 12 11 5 5 9 5 7 6 9 19 21 21
8 8 8 9 9 12 24 26 26 15 9 10 10 12 13 13 13 16 13 13 13 15 18 14 12 14 14 13 12 13 13 13 12 8 7 9 7 7 7 6 16 20 20
8 8 8 9 10 12 21 25 26 10 9 10 11 11 14 13 21 28 18 14 14 13 18 24 25 23 25 26 20 10 9 9 10 7 6 6 5 5 5 5 10 19 20
9 9 9 9 10 10 18 24 25 8 9 10 9 10 19 22 26 28 17 13 15 14 12 13 16 18 16 17 23 12 8 9 9 6 5 6 4 4 4 4 5 5 8
Wind_Direction
183 208 223 220 219 216 207 210 226 247 253 245 232 229 236 242 243 237 240 249 253 257 261 263 263 261 261 260 260 259 257 255 253 253 252 251 251 251 250 251 250 250 250
193 206 226 231 228 229 236 232 239 250 256 255 254 249 245 242 241 239 233 245 250 254 258 261 263 262 261 259 258 257 256 255 253 252 250 249 249 248 248 248 248 248 248
210 215 223 237 237 234 236 243 258 273 274 269 265 263 258 251 247 244 242 234 241 250 255 259 261 263 263 262 260 258 257 256 255 253 251 249 248 247 247 246 245 245 246
212 225 234 242 248 251 245 242 246 267 272 267 260 257 255 253 251 247 244 241 235 240 252 258 262 264 265 265 264 262 259 257 256 255 253 251 249 247 246 245 244 243 243
220 228 236 244 256 258 251 245 244 244 267 277 277 271 266 263 261 258 252 245 240 238 236 255 262 266 268 269 269 268 266 262 258 255 254 253 251 249 247 245 244 243 242
236 237 247 264 271 271 266 255 254 257 253 258 275 278 271 266 263 259 256 252 245 241 238 241 251 260 264 269 271 272 270 268 265 260 257 254 252 251 249 247 245 243 242
255 242 246 269 277 273 267 262 263 274 279 278 298 297 278 257 253 252 248 245 243 240 237 240 240 238 256 263 268 273 274 273 270 267 263 258 255 253 251 249 247 245 243
287 246 239 251 257 262 273 272 265 268 273 266 258 309 311 309 279 260 257 245 243 239 241 243 242 240 235 238 253 264 271 275 276 274 271 266 261 257 254 251 249 247 244
333 301 271 265 270 261 260 261 255 254 264 267 218 214 262 277 311 296 279 274 267 260 254 252 248 243 239 232 240 257 264 270 274 276 276 274 270 265 260 256 252 249 247
170 258 296 292 284 276 270 265 253 243 244 259 262 234 229 234 270 296 287 286 295 283 271 263 255 249 243 238 239 248 259 265 269 273 274 275 275 272 267 262 258 254 250
175 195 220 264 277 272 269 270 274 264 247 244 244 250 260 260 245 261 280 273 264 257 260 260 257 254 249 242 236 245 257 264 268 271 273 274 275 274 272 268 264 260 255
310 269 217 256 268 266 263 262 261 261 256 255 252 245 244 247 251 254 272 278 276 268 265 269 271 269 264 255 249 253 257 262 265 268 271 273 275 275 275 274 271 267 263
325 321 332 293 281 273 269 263 260 258 256 256 254 253 249 250 248 254 269 280 281 277 267 263 262 269 271 266 263 262 261 265 266 267 269 271 272 274 274 274 273 271 268
298 307 308 291 284 281 278 272 266 260 257 254 257 257 256 256 253 252 260 277 286 285 267 259 256 261 274 279 279 278 272 275 275 274 272 272 272 273 273 272 272 270 269
292 299 295 288 284 283 280 278 269 266 264 260 261 261 261 260 257 256 255 253 272 286 285 270 260 261 275 281 286 287 274 277 279 278 277 276 274 274 273 271 270 269 267
299 299 293 289 287 285 283 280 277 273 274 271 268 269 270 269 266 261 258 258 254 270 282 280 262 258 265 274 280 281 278 284 283 281 280 279 277 276 274 272 270 268 266
293 290 289 289 287 285 283 281 279 283 283 283 284 284 281 282 281 275 270 266 262 262 276 283 272 263 261 266 275 273 275 274 273 277 278 277 277 277 276 273 271 268 266
295 291 289 286 284 284 284 284 285 286 285 286 287 289 289 293 288 285 280 275 272 266 272 283 284 275 267 267 269 270 275 274 266 274 276 275 275 276 276 274 272 270 267
291 288 286 285 284 284 283 280 279 278 277 277 279 281 283 285 284 282 279 277 275 274 270 276 282 279 270 268 271 271 268 268 268 271 273 273 274 275 275 275 273 270 267
286 285 282 279 278 277 277 277 276 274 273 271 269 270 274 275 277 278 276 273 271 270 268 268 274 277 274 264 262 269 271 260 262 265 267 267 269 272 273 274 274 273 270
282 279 278 277 274 276 275 275 271 266 267 269 268 267 270 278 280 282 280 273 267 268 270 270 273 276 275 271 267 267 271 270 260 254 257 258 262 261 265 269 273 275 274
280 279 278 277 278 280 292 297 298 286 273 273 277 276 277 284 285 287 287 288 284 279 277 274 277 277 279 274 270 268 272 275 275 234 246 254 245 248 244 240 259 265 268
281 281 279 279 280 285 297 302 302 300 287 282 283 286 289 288 292 283 283 285 285 284 282 278 276 276 277 273 272 272 268 269 271 258 256 265 249 252 245 253 260 263 264
280 281 283 284 286 291 302 304 305 301 287 282 282 283 283 283 281 284 276 270 266 270 272 272 263 263 265 265 258 261 265 267 265 254 240 261 252 244 247 243 257 261 264
284 284 284 286 287 292 301 304 305 294 288 284 282 283 286 284 285 291 290 281 279 275 277 275 271 270 269 270 267 263 256 260 266 253 216 236 244 238 239 241 250 256 259
282 283 283 282 285 290 301 306 307 296 292 290 285 281 287 289 291 293 290 283 283 283 278 277 275 275 274 273 275 268 259 265 270 263 211 213 221 209 244 241 234 241 254